Regional Weather Roundup
Issued by NWS Sioux Falls, SD

Home | Current Version | Previous Version | Graphics & Text | Print | Product List | Glossary On
Versions: 1 2 3 4 5 6 7 8 9 10 11 12 13 14 15 16 17 18 19 20 21 22 23 24 25 26 27 28 29 30 31 32 33 34 35 36 37 38 39 40 41 42 43 44 45 46 47 48 49 50
000
ASUS43 KFSD 161710
RWRFSD

WEATHER ROUNDUP FOR SE SOUTH DAKOTA/SW MINNESOTA/NW IOWA
NATIONAL WEATHER SERVICE SIOUX FALLS SD
1200 PM CDT TUE SEP 16 2014

NOTE: "FAIR" INDICATES FEW OR NO CLOUDS BELOW 12,000 FEET WITH NO
SIGNIFICANT WEATHER AND OR OBSTRUCTIONS TO VISIBILITY.


SDZ038>040-050-052>070-161800-
SOUTHEAST SOUTH DAKOTA

CITY           SKY/WX    TMP DP  RH WIND       PRES   REMARKS
CHAMBERLAIN    SUNNY     64  50  61 S13       30.02F
HURON          SUNNY     64  47  53 S12       30.04F
MADISON        FAIR      59  46  63 S13G21    30.10F
MITCHELL       SUNNY     65  50  58 MISG      30.05F
SIOUX FALLS    SUNNY     62  46  55 S13       30.12F
WINNER         FAIR      68  50  52 S17G25    30.01F
YANKTON        SUNNY     63  46  55 S14G21    30.11F
$$

MNZ071-072-080-081-089-090-097-098-161800-
SOUTHWEST MINNESOTA

CITY           SKY/WX    TMP DP  RH WIND       PRES   REMARKS
FAIRMONT       SUNNY     63  39  42 SW10G16   30.17F
JACKSON        SUNNY     61  41  48 S8        30.16F
LUVERNE        SUNNY     63  43  48 S15       30.14F
MARSHALL       SUNNY     63  43  48 SW14      30.11F
MONTEVIDEO     SUNNY     66  48  52 SW10      30.12F
PIPESTONE      SUNNY     61  45  55 S12       30.12F
REDWOOD FALLS  SUNNY     63  42  46 SW13      30.13F
TRACY          SUNNY     63  46  54 S10G17    30.13F
WINDOM         SUNNY     61  43  51 S12G18    30.15F
WORTHINGTON    SUNNY     59  43  55 SW13G21   30.16F
$$

IAZ001>003-012>014-020>022-031-032-NEZ013-014-SDZ071-161800-
NORTHWEST IOWA

CITY           SKY/WX    TMP DP  RH WIND       PRES   REMARKS
DENISON        SUNNY     59  46  63 S10G18    30.19S
ESTHERVILLE    SUNNY     60  43  53 S15       30.17F
LE MARS        SUNNY     61  48  63 S14       30.17F
ORANGE CITY    SUNNY     61  45  55 S12G20    30.16F
SHELDON        SUNNY     61  45  55 SW13G20   30.15F
SIOUX CITY     SUNNY     62  46  55 S10       30.17F
SPENCER        SUNNY     62  42  47 SW14G25   30.18F
STORM LAKE     SUNNY     61  52  72 SW12G17   30.19F
$$

ABBREVIATIONS USED IN REMARKS
   TC - TEMPERATURE IN CELSIUS
  WCI - WIND CHILL INDEX
   HX - HEAT INDEX
  VSB - VISIBILITY



USA.gov is the U.S. government's official web portal to all federal, state and local government web resources and services.